Weather Service Report


992 
ASUS41 KBOX 190310
RWRBOX

REGIONAL WEATHER ROUNDUP
NATIONAL WEATHER SERVICE TAUNTON MA
1100 PM EDT FRI AUG 18 2017

NOTE:  "FAIR" INDICATES FEW OR NO CLOUDS BELOW 12,000 FEET WITH NO 
SIGNIFICANT WEATHER AND/OR OBSTRUCTIONS TO VISIBILITY.

MAZALL-190400-
EASTERN MASSACHUSETTS
  
CITY           SKY/WX    TMP DP  RH WIND       PRES   REMARKS
BOSTON         DRIZZLE   74  74 100 S8        29.80F                  
BEVERLY        CLOUDY    75  73  93 S8        29.80S                  
LAWRENCE       CLOUDY    77  73  87 S3        29.82S                  
BEDFORD        CLOUDY    75  71  87 S8        29.79S                  
BLUE HILL        N/A     73  72  96 S10       29.81F                  
NORWOOD        CLOUDY    76  75  97 S5        29.79F                  
MARSHFIELD     CLOUDY    75  75 100 S9G16     29.81F                  
PLYMOUTH       LGT RAIN  74  71  91 S12       29.83S                  
TAUNTON        LGT RAIN  74  72  93 S9        29.81F                  
NEW BEDFORD    CLOUDY    74  72  93 SW20G31   29.82S                  
$$

MAZALL-190400-
CAPE COD AND THE ISLANDS
  
CITY           SKY/WX    TMP DP  RH WIND       PRES   REMARKS
FALMOUTH       CLOUDY   N/A N/A N/A MISG      29.86S FOG              
HYANNIS        HVY RAIN  73  72  96 S9G22     29.83S FOG              
CHATHAM        LGT RAIN  68  68 100 S10G18    29.86F FOG              
PROVINCETOWN   LGT RAIN  72  71  97 S16G22    29.84F                  
NANTUCKET      CLOUDY    71  70  96 S21G26    29.87F                  
MARTHAS VNYRD  LGT RAIN  73  70  90 S15       29.84F                  
$$
 
MAZALL-190400-
CENTRAL AND WESTERN MASSACHUSETTS
  
CITY           SKY/WX    TMP DP  RH WIND       PRES   REMARKS
WORCESTER      CLOUDY    73  72  96 SW8       29.84S FOG              
FITCHBURG      FAIR      76  75  97 CALM      29.81S                  
ORANGE         CLOUDY    75  75 100 CALM      29.80S                  
SPRINGFIELD    CLOUDY    76  75  94 S9        29.78S                  
WESTFIELD      CLOUDY    75  75 100 S7        29.80R                  
NORTH ADAMS    FAIR      70  69  97 VRB3      29.79S FOG              
PITTSFIELD     FAIR      71  69  93 CALM      29.83R                  
$$
 
RIZALL-190400-
RHODE ISLAND
  
CITY           SKY/WX    TMP DP  RH WIND       PRES   REMARKS
PROVIDENCE     TSTM      75  75 100 S12G22    29.82F FOG              
NEWPORT        TSTM      74  74 100 S18G24    29.82F FOG              
BLOCK ISLAND   LGT RAIN  73  72  96 MISG        N/A                   
WESTERLY       NOT AVBL                                               
$$
 
CTZALL-190400-
CONNECTICUT
  
CITY           SKY/WX    TMP DP  RH WIND       PRES   REMARKS
BRADLEY INTL   CLOUDY    77  76  96 S7        29.80R                  
HARTFORD       CLOUDY    77  77 100 S5        29.79R                  
BRIDGEPORT     MOCLDY    76  75  97 SW6       29.80S                  
DANBURY        FAIR      76  73  91 SW6       29.83R                  
GROTON         CLOUDY    72  71  97 SW6       29.82R FOG              
NEW HAVEN      MOCLDY    77  75  93 SW6       29.81R                  
CHESTER        CLOUDY    75  75 100 VRB8      29.82S FOG              
MERIDEN        CLOUDY    76  75  97 S6        29.80S                  
WILLIMANTIC    CLOUDY    76  76 100 S8        29.81R                  
OXFORD         LGT RAIN  75  74  96 VRB7      29.84R FOG              
$$

MEZ002-015-021-024-NHZ003-005-008-011-012-014-VTZ005-008-190400-
NORTHERN NEW ENGLAND
  
CITY           SKY/WX    TMP DP  RH WIND       PRES   REMARKS
PORTLAND ME    LGT RAIN  65  64  97 NW13G20   29.82S FOG              
BANGOR ME      LGT RAIN  60  57  89 SE6       29.92F FOG              
CONCORD NH     CLOUDY    64  62  93 NW6       29.82F                  
MANCHESTER NH  LGT RAIN  66  63  90 N6        29.80F                  
NASHUA NH      LGT RAIN  66  66 100 NW5       29.82S                  
PORTSMOUTH NH  LGT RAIN  66  65  97 NW7       29.80S FOG              
JAFFREY NH     CLOUDY    65  65 100 CALM      29.85R                  
KEENE NH         N/A    N/A N/A N/A MISG        N/A                   
BURLINGTON VT  MOCLDY    72  67  84 E5        29.75S                  
MT. WASHINGTON FOG       55  55 100 W20         N/A  VSB 0            
$$

NYZ052-076-190400-
EASTERN NEW YORK
  
CITY           SKY/WX    TMP DP  RH WIND       PRES   REMARKS
ALBANY         MOCLDY    75  72  90 S8        29.78R                  
NEW YORK CITY  LGT RAIN  76  71  85 SW12      29.80R                  
$$
 
ANZALL-190400-
MARINE OBSERVATIONS
  
STATION/POSITION TIME  TEMP    WIND        PRES    VSBY  WAVE
                       AIR SEA DIR/SP/G                  HT/PER
                 (UTC) (F)     (DEG/KT/KT) (MB)    (MI)  (FT/S)
BOSTON BUOY      0250   68 67  150/ 10/ 10 1009.2S         2/ 4
BUZZARDS BAY     0200   71     190/ 25/ 28 1009.9F
NANTUCKET SOUND  0250   73 71  180/ 23/ 29 1010.1F         3/ 4
MASS BAY-STELLWA 0204   69 66  170/ 16/ 17 1008.5F         3/ 5
ISLE OF SHOALS   0200   69     180/ 21/ 22 1008.9F
S OF BLOCK IS    NOT AVBL
$$

......................KEY.........................
  SKY/WX - SKY CONDITION/PRESENT WEATHER
  TMP    - TEMPERATURE IN FAHRENHEIT
  DWPT   - DEWPOINT IN FAHRENHEIT
  RH     - RELATIVE HUMIDITY IN PERCENT
  WIND   - DIRECTION AND SPEED IN MPH
  PRES   - MEAN SEA LEVEL PRESSURE IN INCHES OF HG
  WCI    - WIND CHILL INDEX
  VSB    - VISIBILITY IN MILES
  HX     - HEAT INDEX
  TC     - TEMPERATURE IN CELSIUS
  VRB    - VARIABLE WIND DIRECTION
  N/A    - NOT AVAILABLE
  

Return to Home page


Western Regional Climate Center, wrcc@dri.edu